Find OneWeb SL0579

NORAD ID: 56068 Int'l Des: 2023-043 Owner: ONEWEBN Country: UK Constellation: oneweb operational
LEOCIRCULARPOLARONEWEB_TYPE

リアルタイム位置

3D地球を読み込み中...

OneWeb SL0579について

説明を読み込み中...

次回通過

Passes for default location (London). Set your location on the main map for personalized predictions.

高度履歴

Loading altitude history...

軌道要素

1 56068U 23043Y 26105.79607594 .00000170 00000-0 38095-3 0 9994
2 56068 87.9205 256.3908 0002092 94.9563 265.1810 13.21825348150006
Epoch: Apr 15, 2026 • Age: 7 hours

現在のステータス

高度 1202.2 km
速度 7.25 km/s
衛星直下点 -59.73°S, 150.81°W
打ち上げ日 Mar 26, 2023
運用期間 3 years
タイプ internet

技術仕様

分類 Payload
質量 148.00 kg
乾燥質量 140.00 kg
総質量 148.00 kg
長さ 1.30 m
直径 1.00 m
スパン 5.00 m
形状 Trapezoid+2 pan
製造者 ONEWUS
バスタイプ ARROW
フェーズステータス In Orbit
所有者/国 ONEWEBN/UK

Most Searched